1501581600.9,56361,23.13,75158.5,27.99,-6.31,-7.11,0,*4C
1501581602.14,56362,23.13,75154.8,28.01,-6.47,-7.39,0,*4A
1501581603.39,56363,23.13,75156.5,27.97,-6.77,-7.61,0,*45
1501581604.62,56364,23.13,75154.0,27.99,-6.55,-7.61,0,*4C
1501581605.86,56365,23.13,75154.3,27.99,-6.19,-6.93,0,*49
1501581607.08,56366,23.13,75154.0,27.99,-5.73,-6.77,0,*4F
1501581608.3,56367,23.13,75154.8,27.99,-6.55,-7.57,0,*4A
1501581609.55,56368,23.13,75154.3,27.99,-7.05,-8.11,0,*4C
1501581610.77,56369,23.13,75154.8,27.99,-7.05,-7.87,0,*4D
1501581612.01,56370,23.13,75156.0,27.99,-7.35,-8.51,0,*42
1501581613.22,56371,23.13,75154.3,27.95,-8.17,-9.23,0,*44
1501581614.43,56372,23.19,75158.8,27.93,-9.19,-10.27,0,*72
1501581615.67,56373,23.19,75158.3,27.91,-7.73,-8.75,0,*4D
1501581616.91,56374,23.13,75156.3,27.91,-6.01,-6.93,0,*48
1501581618.13,56375,23.13,75156.5,27.91,-6.09,-7.11,0,*4A
1501581619.34,56376,23.13,75154.5,27.91,-6.39,-7.23,0,*4B
1501581620.56,56377,23.13,75156.3,27.93,-6.47,-7.43,0,*47
1501581621.79,56378,23.13,75154.0,27.91,-7.31,-8.29,0,*49
1501581623.01,56379,23.19,75158.8,27.91,-6.89,-7.87,0,*41
1501581624.25,56380,23.13,75156.5,27.91,-6.51,-7.31,0,*4F
1501581625.5,56381,23.13,75158.8,27.91,-5.89,-6.81,0,*42
1501581626.74,56382,23.19,75156.8,27.91,-5.65,-6.55,0,*4A
1501581627.98,56383,23.19,75156.5,27.93,-5.81,-6.63,0,*46
1501581629.2,56384,23.13,75156.0,27.93,-5.93,-6.77,0,*47
1501581630.42,56385,23.13,75156.0,27.93,-5.85,-6.73,0,*45
1501581631.69,56386,23.19,75158.3,27.95,-6.19,-7.01,0,*42
1501581632.93,56387,23.13,75156.8,27.95,-6.85,-7.73,0,*43
1501581634.16,56388,23.19,75156.0,27.93,-4.77,-5.69,0,*4C
1501581635.41,56389,23.13,75156.0,27.97,-4.41,-5.19,0,*4B
1501581636.63,56390,23.19,75156.5,27.99,-4.45,-5.27,0,*44
1501581637.87,56391,23.13,75152.5,27.99,-5.73,-6.63,0,*42
1501581639.06,56392,23.13,75156.3,27.99,-4.57,-5.39,0,*4A
1501581640.29,56393,23.13,75152.0,28.01,-5.35,-6.35,0,*4F
1501581641.54,56394,23.13,75156.5,28.01,-6.51,-7.43,0,*49
1501581642.76,56395,23.19,75156.8,27.99,-5.27,-6.05,0,*47
1501581644.01,56396,23.13,75152.8,28.01,-5.31,-6.13,0,*4A
1501581645.28,56397,23.19,75158.8,28.01,-5.31,-6.23,0,*48
1501581646.55,56398,23.19,75156.8,28.05,-5.31,-6.19,0,*4A
1501581647.81,56399,23.13,75154.3,28.05,-4.89,-5.69,0,*4D
1501581649.06,56400,23.13,75158.0,28.09,-4.81,-5.55,0,*41
1501581650.3,56401,23.19,75156.3,28.09,-5.23,-6.01,0,*4B
1501581651.54,56402,23.13,75156.5,28.09,-5.35,-6.27,0,*4B
1501581652.79,56403,23.19,75156.5,28.09,-6.51,-7.31,0,*4D
1501581654.04,56404,23.13,75156.3,28.09,-6.93,-7.83,0,*4D
1501581655.26,56405,23.13,75158.3,28.07,-6.27,-7.19,0,*4E
1501581656.49,56406,23.19,75158.8,28.05,-6.47,-7.39,0,*4B
1501581657.74,56407,23.19,75160.3,28.07,-6.93,-7.91,0,*43
1501581658.95,56408,23.13,75158.3,28.05,-6.05,-6.89,0,*49
1501581660.17,56409,23.19,75156.0,28.07,-6.55,-7.61,0,*48
1501581661.41,56410,23.13,75154.3,28.05,-6.69,-7.61,0,*4D
1501581662.66,56411,23.13,75154.5,28.01,-6.93,-7.87,0,*45
1501581663.88,56412,23.19,75158.8,27.99,-8.55,-9.61,0,*4A
1501581665.1,56413,23.19,75158.8,27.99,-8.41,-9.61,0,*4E
1501581666.38,56414,23.13,75156.3,27.97,-10.75,-11.85,0,*4A
1501581667.6,56415,23.13,75152.5,27.93,-9.45,-9.71,0,*46
1501581668.82,56416,23.13,75152.8,27.93,-6.85,-7.77,0,*4E
1501581670.04,56417,23.13,75154.3,27.91,-5.97,-6.81,0,*45
1501581671.25,56418,23.13,75152.8,27.93,-5.19,-6.05,0,*42
1501581672.49,56419,23.13,75154.3,27.95,-4.53,-5.27,0,*49
1501581673.75,56420,23.19,75158.0,27.97,-4.81,-5.73,0,*4F
1501581675.02,56421,23.19,75156.0,27.97,-4.93,-5.89,0,*48
1501581676.25,56422,23.19,75158.8,27.99,-4.85,-5.77,0,*43
1501581677.47,56423,23.19,75156.5,28.05,-4.61,-5.43,0,*45
1501581678.68,56424,23.19,75158.8,28.05,-4.53,-5.55,0,*44
1501581679.95,56425,23.13,75154.0,28.05,-5.31,-6.19,0,*4B
1501581681.17,56426,23.19,75158.8,28.07,-5.15,-6.01,0,*45
1501581682.36,56427,23.13,75158.3,28.07,-5.39,-6.31,0,*49
1501581683.59,56428,23.19,75158.3,28.07,-4.93,-5.77,0,*46
1501581684.8,56429,23.13,75154.0,28.07,-4.45,-5.27,0,*49
1501581686.02,56430,23.19,75154.5,28.09,-4.57,-5.47,0,*4A
1501581687.26,56431,23.13,75154.3,28.13,-5.85,-6.73,0,*4A
1501581688.48,56432,23.13,75154.0,28.11,-5.85,-6.73,0,*4B
1501581689.69,56433,23.19,75158.0,28.11,-5.11,-5.97,0,*4E
1501581690.93,56434,23.13,75152.3,28.13,-5.15,-6.05,0,*47
1501581692.17,56435,23.13,75156.3,28.15,-4.89,-5.77,0,*42
1501581693.43,56436,23.13,75156.3,28.13,-5.27,-6.19,0,*49
1501581694.64,56437,23.13,75152.8,28.15,-5.61,-6.43,0,*43
1501581695.88,56438,23.13,75154.8,28.15,-5.27,-6.27,0,*4C
1501581697.11,56439,23.13,75154.5,28.19,-3.91,-4.69,0,*42
1501581698.32,56440,23.19,75156.5,28.19,-3.55,-4.33,0,*4B
1501581699.53,56441,23.19,75156.3,28.23,-3.47,-4.33,0,*40
1501581700.75,56442,23.19,75158.0,28.23,-4.37,-5.27,0,*47
1501581701.96,56443,23.19,75156.0,28.27,-6.01,-7.01,0,*43
1501581703.18,56444,23.19,75154.5,28.27,-5.85,-6.77,0,*4B
1501581704.39,56445,23.19,75156.5,28.27,-5.23,-6.09,0,*4F
1501581705.61,56446,23.13,75152.5,28.29,-5.61,-6.69,0,*42
1501581706.82,56447,23.19,75158.0,28.27,-6.01,-7.01,0,*47
1501581708.01,56448,23.19,75156.5,28.27,-5.47,-6.39,0,*43
1501581709.22,56449,23.19,75158.0,28.27,-5.23,-6.09,0,*43
1501581710.44,56450,23.19,75158.0,28.29,-5.73,-6.47,0,*4A
1501581711.67,56451,23.13,75152.3,28.27,-6.27,-7.05,0,*40
1501581712.9,56452,23.19,75158.3,28.29,-6.27,-7.05,0,*4D
1501581714.12,56453,23.19,75156.0,28.29,-5.43,-6.27,0,*4C
1501581715.36,56454,23.19,75156.8,28.31,-5.69,-6.59,0,*43
1501581716.58,56455,23.19,75162.5,28.29,-5.61,-6.51,0,*4B
1501581717.81,56456,23.13,75158.0,28.29,-5.85,-6.77,0,*46
1501581719.01,56457,23.19,75156.5,28.29,-5.47,-6.39,0,*43
1501581720.22,56458,23.19,75160.5,28.29,-5.19,-6.09,0,*44
1501581721.44,56459,23.19,75156.5,28.33,-5.39,-6.27,0,*40
1501581722.67,56460,23.13,75158.0,28.33,-5.69,-6.55,0,*4A
1501581723.91,56461,23.19,75160.5,28.31,-6.05,-6.97,0,*4E
1501581725.15,56462,23.19,75156.5,28.31,-5.03,-6.05,0,*43
1501581726.37,56463,23.19,75158.5,28.33,-4.73,-5.55,0,*40
1501581727.62,56464,23.19,75156.8,28.37,-4.89,-5.85,0,*4B
1501581728.88,56465,23.19,75156.3,28.39,-4.77,-5.85,0,*45
1501581730.12,56466,23.19,75158.8,28.35,-5.07,-5.97,0,*4F
1501581731.37,56467,23.19,75156.3,28.35,-4.09,-5.11,0,*4F
1501581732.6,56468,23.19,75158.8,28.39,-3.75,-4.61,0,*46
1501581733.86,56469,23.19,75156.8,28.43,-3.83,-4.81,0,*4D
1501581735.11,56470,23.19,75156.5,28.43,-4.29,-5.23,0,*4B
1501581736.36,56471,23.13,75154.0,28.43,-4.29,-5.31,0,*49
1501581737.62,56472,23.19,75156.3,28.47,-3.91,-4.81,0,*40
1501581738.85,56473,23.19,75156.3,28.51,-4.45,-5.31,0,*42
1501581740.12,56474,23.19,75156.5,28.47,-4.89,-5.81,0,*49
1501581741.37,56475,23.19,75156.3,28.51,-4.25,-5.15,0,*44
1501581742.58,56476,23.19,75156.3,28.51,-4.49,-5.39,0,*43
1501581743.84,56477,23.13,75154.0,28.55,-4.81,-5.77,0,*48
1501581745.07,56478,23.13,75152.5,28.55,-5.73,-6.55,0,*48
1501581746.32,56479,23.13,75154.3,28.55,-6.19,-7.11,0,*47
1501581747.51,56480,23.19,75154.0,28.53,-5.51,-6.43,0,*4E
1501581748.73,56481,23.19,75156.3,28.53,-6.19,-7.11,0,*46
1501581749.96,56482,23.19,75158.0,28.53,-5.89,-6.81,0,*47
1501581751.19,56483,23.19,75160.3,28.55,-4.09,-4.93,0,*48
1501581752.42,56484,23.19,75156.5,28.53,-4.33,-5.11,0,*4B
1501581753.68,56485,23.19,75156.3,28.55,-5.07,-5.89,0,*4B
1501581754.94,56486,23.19,75158.3,28.55,-4.93,-5.77,0,*45
1501581756.15,56487,23.19,75156.3,28.57,-5.23,-6.13,0,*4D
1501581757.34,56488,23.19,75152.3,28.57,-4.57,-5.35,0,*47
1501581758.56,56489,23.19,75154.0,28.59,-4.61,-5.51,0,*4F
1501581759.8,56490,23.19,75154.8,28.59,-5.15,-6.09,0,*4B
1501581761.06,56491,23.19,75158.5,28.59,-4.89,-5.81,0,*4D
1501581762.28,56492,23.19,75156.3,28.61,-6.13,-6.85,0,*43
1501581763.52,56493,23.19,75152.8,28.61,-6.69,-7.69,0,*4C
1501581764.73,56494,23.19,75158.0,28.61,-5.97,-6.85,0,*4A
1501581765.98,56495,23.19,75156.5,28.59,-6.23,-7.11,0,*40
1501581767.19,56496,23.19,75158.5,28.57,-6.27,-7.15,0,*4D
1501581768.41,56497,23.19,75156.8,28.57,-7.23,-8.07,0,*45
1501581769.62,56498,23.19,75154.5,28.57,-6.89,-7.69,0,*4C
1501581770.83,56499,23.13,75154.3,28.57,-5.65,-6.13,0,*40
1501581772.05,56500,23.19,75154.8,28.57,-6.73,-7.65,0,*45
1501581773.26,56501,23.19,75156.5,28.57,-6.73,-7.57,0,*45
1501581774.49,56502,23.19,75156.5,28.53,-6.93,-7.87,0,*41
1501581775.72,56503,23.19,75158.8,28.55,-7.61,-8.67,0,*4B
1501581776.95,56504,23.19,75154.3,28.55,-6.69,-7.69,0,*44
1501581778.19,56505,23.19,75154.8,28.51,-6.23,-7.15,0,*44
1501581779.44,56506,23.19,75154.5,28.51,-4.49,-5.23,0,*4E
1501581780.65,56507,23.19,75154.8,28.53,-4.17,-4.93,0,*4C
1501581781.89,56508,23.19,75158.0,28.55,-4.33,-5.11,0,*48
1501581783.08,56509,23.19,75156.3,28.57,-5.35,-6.13,0,*4D
1501581784.33,56510,23.19,75154.0,28.59,-4.25,-5.03,0,*49
1501581785.58,56511,23.19,75154.5,28.61,-3.91,-4.81,0,*40
1501581786.82,56512,23.19,75154.5,28.63,-5.31,-6.23,0,*47
1501581788.04,56513,23.19,75154.5,28.61,-5.51,-6.43,0,*44
1501581789.28,56514,23.19,75152.0,28.63,-5.31,-6.23,0,*41
1501581790.53,56515,23.19,75154.5,28.61,-6.51,-7.31,0,*45
1501581791.74,56516,23.19,75158.5,28.63,-5.11,-6.01,0,*41
1501581792.96,56517,23.19,75156.5,28.63,-4.13,-5.03,0,*42
1501581794.18,56518,23.19,75152.0,28.63,-5.85,-6.77,0,*43
1501581795.44,56519,23.19,75154.0,28.65,-6.23,-7.05,0,*4F
1501581796.65,56520,23.19,75156.5,28.67,-6.09,-7.01,0,*4B
1501581797.9,56521,23.19,75158.3,28.65,-6.59,-7.43,0,*4B
1501581799.14,56522,23.19,75156.0,28.65,-6.73,-7.69,0,*48
1501581800.38,56523,23.19,75156.0,28.65,-7.95,-8.75,0,*42
1501581801.62,56524,23.19,75156.3,28.61,-8.37,-9.37,0,*41
1501581802.85,56525,23.19,75156.3,28.61,-8.93,-9.89,0,*4B
1501581804.06,56526,23.19,75156.3,28.57,-8.59,-9.49,0,*47
1501581805.28,56527,23.19,75158.5,28.57,-8.37,-9.41,0,*46
1501581806.48,56528,23.19,75156.3,28.53,-9.23,-10.15,0,*70
1501581807.76,56529,23.19,75156.0,28.47,-9.41,-10.41,0,*71
1501581809.01,56530,23.19,75158.5,28.47,-9.53,-10.57,0,*7D
1501581810.23,56531,23.19,75158.0,28.47,-8.71,-9.71,0,*41
1501581811.47,56532,23.19,75158.3,28.45,-6.63,-7.57,0,*47
1501581812.72,56533,23.19,75156.8,28.43,-6.93,-7.83,0,*46
1501581813.91,56534,23.19,75158.5,28.45,-6.55,-7.49,0,*4B
1501581815.13,56535,23.19,75154.5,28.45,-5.77,-6.69,0,*4A
1501581816.34,56536,23.19,75154.8,28.45,-5.89,-6.77,0,*47
1501581817.59,56537,23.19,75154.5,28.47,-6.59,-7.43,0,*4C
1501581818.83,56538,23.19,75152.8,28.47,-6.27,-7.19,0,*45
1501581820.05,56539,23.19,75156.8,28.47,-6.35,-7.19,0,*47
1501581821.29,56540,23.19,75158.5,28.47,-5.93,-6.85,0,*42
1501581822.52,56541,23.19,75156.0,28.51,-6.01,-6.81,0,*48
1501581823.75,56542,23.19,75156.8,28.51,-6.35,-7.23,0,*45
1501581824.97,56543,23.19,75156.5,28.51,-6.35,-7.23,0,*44
1501581826.22,56544,23.19,75156.0,28.51,-6.85,-7.77,0,*49
1501581827.44,56545,23.19,75154.3,28.51,-6.01,-6.81,0,*4C
1501581828.71,56546,23.19,75158.0,28.51,-5.15,-5.93,0,*49
1501581829.95,56547,23.19,75158.0,28.55,-4.45,-5.23,0,*43
1501581831.18,56548,23.19,75152.8,28.55,-4.69,-5.39,0,*49
1501581832.41,56549,23.19,75156.0,28.59,-4.77,-5.51,0,*45
1501581833.66,56550,23.19,75154.0,28.59,-4.61,-5.27,0,*4B
1501581834.89,56551,23.19,75156.3,28.61,-4.69,-5.39,0,*46
1501581836.1,56552,23.19,75154.0,28.63,-6.39,-7.05,0,*4D
1501581837.34,56553,23.19,75152.0,28.63,-4.89,-5.61,0,*45
1501581838.55,56554,23.19,75154.8,28.63,-4.77,-5.43,0,*43
1501581839.82,56555,23.19,75152.3,28.65,-5.07,-5.85,0,*48
1501581841.1,56556,23.19,75154.0,28.65,-5.07,-5.85,0,*4B
1501581842.29,56557,23.19,75152.3,28.67,-5.51,-6.35,0,*43
1501581843.49,56558,23.19,75152.0,28.67,-5.55,-6.31,0,*4C
1501581844.75,56559,23.19,75154.0,28.65,-5.61,-6.23,0,*4B
1501581845.97,56560,23.19,75156.0,28.67,-5.93,-6.59,0,*43
1501581847.19,56561,23.19,75154.8,28.67,-6.19,-6.89,0,*4E
1501581848.39,56562,23.19,75156.3,28.67,-6.31,-7.11,0,*47
1501581849.61,56563,23.19,75152.5,28.67,-6.73,-7.61,0,*47
1501581850.8,56564,23.19,75154.0,28.67,-6.89,-7.83,0,*49
1501581852.02,56565,23.19,75152.5,28.67,-7.11,-8.03,0,*4F
1501581853.26,56566,23.19,75154.5,28.65,-6.47,-7.27,0,*45
1501581854.52,56567,23.19,75154.0,28.65,-7.01,-7.95,0,*4E
1501581855.77,56568,23.19,75154.5,28.65,-6.59,-7.43,0,*46
1501581857.01,56569,23.19,75154.0,28.65,-5.81,-6.59,0,*4B
1501581858.25,56570,23.19,75152.8,28.65,-6.39,-7.01,0,*4F
1501581859.52,56571,23.19,75154.5,28.65,-7.27,-8.07,0,*49
1501581860.77,56572,23.19,75152.3,28.63,-7.27,-8.07,0,*4C
1501581862.01,56573,23.19,75152.3,28.61,-7.43,-8.37,0,*4E
1501581863.21,56574,23.19,75152.3,28.63,-6.89,-7.83,0,*4C
1501581864.47,56575,23.19,75152.8,28.61,-7.77,-8.81,0,*42
1501581865.68,56576,23.19,75154.0,28.59,-8.21,-9.23,0,*4F
1501581866.92,56577,23.19,75152.8,28.57,-8.51,-9.45,0,*47
1501581868.16,56578,23.19,75154.3,28.55,-7.35,-8.25,0,*40
1501581869.37,56579,23.19,75160.5,28.55,-7.23,-8.25,0,*46
1501581870.6,56580,23.19,75154.8,28.53,-7.91,-8.81,0,*41
1501581871.81,56581,23.19,75152.3,28.53,-7.57,-8.29,0,*48
1501581873.03,56582,23.19,75152.3,28.53,-6.69,-7.57,0,*41
1501581874.25,56583,23.19,75154.0,28.53,-7.19,-8.11,0,*4B
1501581875.47,56584,23.19,75154.8,28.51,-7.23,-8.17,0,*41
1501581876.74,56585,23.19,75156.0,28.51,-6.93,-7.77,0,*43
1501581877.98,56586,23.19,75158.0,28.51,-6.69,-7.39,0,*4F
1501581879.22,56587,23.19,75158.5,28.47,-6.97,-7.83,0,*49
1501581880.45,56588,23.19,75156.8,28.51,-5.51,-6.43,0,*45
1501581881.66,56589,23.19,75154.3,28.53,-5.27,-6.13,0,*42
1501581882.88,56590,23.19,75154.8,28.53,-7.11,-8.11,0,*41
1501581884.09,56591,23.19,75158.0,28.53,-7.49,-8.51,0,*49
1501581885.33,56592,23.19,75154.5,28.47,-7.43,-8.45,0,*40
1501581886.58,56593,23.19,75156.3,28.47,-7.57,-8.37,0,*41
1501581887.83,56594,23.19,75158.5,28.51,-7.35,-8.21,0,*42
1501581889.07,56595,23.19,75158.0,28.51,-8.59,-9.57,0,*46
1501581890.26,56596,23.19,75158.8,28.45,-8.97,-9.89,0,*41
1501581891.47,56597,23.19,75156.8,28.41,-9.27,-10.19,0,*7F
1501581892.69,56598,23.19,75154.3,28.41,-8.03,-8.89,0,*47
1501581893.93,56599,23.19,75158.5,28.41,-7.27,-8.03,0,*4D
1501581895.19,56600,23.19,75154.5,28.39,-7.01,-7.91,0,*41
1501581896.43,56601,23.19,75152.8,28.39,-5.85,-6.73,0,*43
1501581897.63,56602,23.19,75156.3,28.41,-5.43,-6.31,0,*43
1501581898.85,56603,23.19,75152.5,28.41,-4.77,-5.55,0,*45
1501581900.07,56604,23.19,75156.3,28.45,-5.31,-6.01,0,*47
1501581901.32,56605,23.19,75158.5,28.43,-4.57,-5.31,0,*41
1501581902.56,56606,23.19,75156.0,28.47,-4.17,-4.89,0,*40
1501581903.79,56607,23.19,75156.3,28.51,-3.83,-4.65,0,*4E
1501581905.06,56608,23.19,75154.3,28.51,-3.43,-4.01,0,*4F
1501581906.3,56609,23.19,75156.5,28.55,-4.05,-4.73,0,*4A
1501581907.57,56610,23.19,75152.3,28.59,-4.01,-4.73,0,*4A
1501581908.82,56611,23.19,75152.3,28.59,-3.63,-4.21,0,*4F
1501581910.01,56612,23.19,75154.0,28.63,-3.15,-3.75,0,*42
1501581911.25,56613,23.19,75152.8,28.65,-3.11,-3.63,0,*46
1501581912.44,56614,23.19,75154.5,28.67,-3.35,-3.87,0,*4F
1501581913.65,56615,23.19,75158.5,28.67,-2.99,-3.59,0,*4A
1501581914.91,56616,23.19,75156.8,28.73,-3.43,-4.01,0,*40
1501581916.13,56617,23.19,75158.3,28.73,-3.27,-3.87,0,*4A
1501581917.37,56618,23.19,75156.0,28.77,-4.41,-5.15,0,*4B
1501581918.59,56619,23.19,75158.8,28.77,-5.55,-6.31,0,*4B
1501581919.83,56620,23.19,75154.0,28.79,-5.27,-5.93,0,*41
1501581921.07,56621,23.19,75154.8,28.79,-5.23,-5.93,0,*44
1501581922.26,56622,23.19,75152.5,28.79,-6.01,-6.73,0,*49
1501581923.49,56623,23.19,75152.8,28.79,-5.03,-5.77,0,*4E
1501581924.68,56624,23.19,75154.8,28.79,-4.57,-5.39,0,*43
1501581925.88,56625,23.19,75152.0,28.79,-3.91,-4.57,0,*46
1501581927.12,56626,23.19,75154.5,28.81,-4.73,-5.51,0,*4E
1501581928.37,56627,23.19,75154.3,28.81,-4.05,-4.73,0,*4F
1501581929.56,56628,23.19,75152.5,28.83,-4.65,-5.51,0,*45
1501581930.77,56629,23.19,75156.3,28.83,-5.15,-5.97,0,*48
1501581931.97,56630,23.19,75152.3,28.83,-5.55,-6.43,0,*4E
1501581933.17,56631,23.19,75156.0,28.83,-5.55,-6.47,0,*4B
1501581934.41,56632,23.19,75152.5,28.83,-5.81,-6.63,0,*47
1501581935.65,56633,23.19,75152.3,28.81,-5.51,-6.27,0,*49
1501581936.91,56634,23.19,75152.3,28.81,-4.81,-5.73,0,*40
1501581938.16,56635,23.19,75154.0,28.83,-5.31,-6.19,0,*46
1501581939.4,56636,23.19,75152.3,28.81,-5.77,-6.59,0,*41
1501581940.61,56637,23.19,75156.0,28.81,-5.39,-6.05,0,*43
1501581941.86,56638,23.19,75152.3,28.81,-4.25,-5.11,0,*46
1501581943.1,56639,23.19,75158.0,28.79,-6.93,-7.91,0,*45
1501581944.31,56640,23.19,75152.5,28.79,-6.27,-7.11,0,*4C
1501581945.53,56641,23.19,75152.8,28.79,-5.89,-6.81,0,*42
1501581946.75,56642,23.19,75158.0,28.79,-5.93,-6.59,0,*4F
1501581948.01,56643,23.19,75152.5,28.81,-6.27,-6.97,0,*47
1501581949.22,56644,23.25,75162.0,28.79,-6.13,-6.97,0,*40
1501581950.46,56645,23.19,75154.8,28.77,-6.05,-6.63,0,*43
1501581951.69,56646,23.19,75154.5,28.77,-4.73,-5.39,0,*4F
1501581952.93,56647,23.19,75158.0,28.77,-5.31,-5.97,0,*4D
1501581954.14,56648,23.19,75154.0,28.79,-5.73,-6.39,0,*4D
1501581955.37,56649,23.19,75158.3,28.79,-5.27,-5.77,0,*44
1501581956.58,56650,23.19,75156.0,28.81,-5.35,-6.01,0,*4A
1501581957.82,56651,23.19,75158.5,28.79,-4.73,-5.27,0,*48
1501581959.04,56652,23.19,75156.8,28.83,-4.61,-5.19,0,*40
1501581960.25,56653,23.19,75156.8,28.83,-4.61,-5.15,0,*4D
1501581961.52,56654,23.19,75156.3,28.85,-5.07,-5.73,0,*4D
1501581962.74,56655,23.19,75158.0,28.85,-6.09,-6.73,0,*42
1501581963.95,56656,23.19,75158.3,28.83,-5.73,-6.43,0,*4A
1501581965.16,56657,23.19,75158.0,28.83,-6.73,-7.27,0,*4B
1501581966.41,56658,23.19,75158.3,28.85,-5.81,-6.43,0,*4F
1501581967.64,56659,23.19,75156.8,28.83,-5.73,-6.97,0,*4C
1501581968.88,56660,23.19,75158.8,28.85,-6.23,-6.77,0,*48
1501581970.1,56661,23.19,75156.5,28.85,-6.31,-7.11,0,*4B
1501581971.32,56662,23.19,75158.0,28.83,-7.11,-7.91,0,*45
1501581972.51,56663,23.19,75158.0,28.83,-6.43,-7.15,0,*4E
1501581973.73,56664,23.19,75156.8,28.83,-7.95,-8.85,0,*45
1501581974.97,56665,23.19,75154.0,28.81,-7.35,-8.25,0,*46
1501581976.15,56666,23.19,75156.8,28.79,-6.69,-7.49,0,*4F
1501581977.33,56667,23.19,75158.5,28.79,-7.87,-8.67,0,*4C
1501581978.54,56668,23.19,75158.5,28.79,-7.19,-7.91,0,*42
1501581979.78,56669,23.19,75158.0,28.77,-7.65,-8.45,0,*40
1501581981.0,56670,23.19,75156.5,28.75,-7.73,-8.63,0,*49
1501581982.21,56671,23.19,75156.5,28.75,-7.87,-8.81,0,*4F
1501581983.42,56672,23.19,75158.8,28.75,-7.73,-8.63,0,*4B
1501581984.66,56673,23.19,75156.5,28.73,-7.99,-8.89,0,*4C
1501581985.88,56674,23.19,75156.0,28.69,-8.67,-9.75,0,*4C
1501581987.1,56675,23.19,75154.5,28.69,-9.27,-10.15,0,*76
1501581988.33,56676,23.19,75152.0,28.67,-9.37,-10.05,0,*7B
1501581989.53,56677,23.19,75152.5,28.65,-8.33,-9.19,0,*48
1501581990.77,56678,23.19,75154.5,28.61,-9.23,-10.15,0,*77
1501581992.03,56679,23.19,75156.0,28.61,-7.35,-8.11,0,*42
1501581993.29,56680,23.25,75156.0,28.61,-6.27,-6.93,0,*42
1501581994.54,56681,23.19,75158.0,28.61,-7.11,-7.99,0,*4C
1501581995.76,56682,23.19,75156.0,28.61,-8.25,-9.05,0,*4C
1501581996.98,56683,23.19,75152.3,28.59,-8.89,-9.97,0,*4B
1501581998.19,56684,23.19,75154.3,28.57,-8.25,-9.15,0,*4E
1501581999.41,56685,23.19,75154.5,28.57,-8.07,-8.89,0,*4B
1501582000.64,56686,23.19,75154.8,28.55,-7.31,-8.29,0,*4A
1501582001.89,56687,23.19,75156.0,28.55,-8.37,-9.37,0,*4C
1501582003.09,56688,23.19,75156.5,28.53,-7.69,-8.71,0,*42
1501582004.32,56689,23.19,75156.5,28.51,-6.35,-7.15,0,*44
1501582005.52,56690,23.19,75156.3,28.53,-6.81,-7.87,0,*4A
1501582006.7,56691,23.19,75156.5,28.53,-7.83,-8.71,0,*4E
1501582007.95,56692,23.19,75156.3,28.51,-6.93,-7.87,0,*49
1501582009.17,56693,23.19,75158.0,28.51,-6.73,-7.49,0,*44
1501582010.36,56694,23.19,75156.0,28.53,-6.39,-7.11,0,*42
1501582011.61,56695,23.19,75158.0,28.53,-5.77,-6.63,0,*4E
1501582012.82,56696,23.19,75156.3,28.55,-5.97,-6.77,0,*40
1501582014.06,56697,23.19,75156.5,28.55,-5.65,-6.39,0,*46
1501582015.27,56698,23.19,75154.5,28.57,-5.19,-6.05,0,*4F
1501582016.48,56699,23.19,75154.5,28.57,-5.73,-6.59,0,*4B
1501582017.71,56700,23.19,75156.8,28.59,-5.19,-6.05,0,*41
1501582018.98,56701,23.19,75156.3,28.59,-5.11,-5.69,0,*41
1501582020.19,56702,23.19,75154.5,28.63,-5.73,-6.51,0,*47
1501582021.4,56703,23.19,75158.5,28.63,-5.73,-6.51,0,*46
1501582022.62,56704,23.19,75158.0,28.63,-4.33,-5.11,0,*43
1501582023.87,56705,23.19,75156.3,28.65,-5.85,-6.73,0,*4F
1501582025.08,56706,23.19,75156.5,28.67,-5.93,-6.85,0,*40
1501582026.29,56707,23.19,75156.0,28.67,-5.43,-6.23,0,*40
1501582027.51,56708,23.19,75158.0,28.67,-4.73,-5.51,0,*4B
1501582028.77,56709,23.25,75160.0,28.69,-5.15,-5.89,0,*40
1501582030.03,56710,23.19,75154.3,28.73,-4.81,-5.81,0,*47
1501582031.24,56711,23.19,75158.3,28.75,-4.77,-5.47,0,*43
1501582032.45,56712,23.19,75154.8,28.75,-4.77,-5.43,0,*44
1501582033.68,56713,23.19,75152.0,28.77,-5.97,-7.01,0,*4C
1501582034.9,56714,23.19,75158.8,28.75,-8.41,-9.37,0,*44
1501582036.12,56715,23.19,75154.3,28.75,-6.89,-7.57,0,*47
1501582037.33,56716,23.19,75156.3,28.75,-4.69,-5.55,0,*48
1501582038.54,56717,23.19,75156.0,28.75,-5.61,-6.39,0,*49
1501582039.79,56718,23.19,75152.5,28.75,-5.19,-5.89,0,*41
1501582040.99,56719,23.19,75156.8,28.79,-4.81,-5.47,0,*4E
1501582042.2,56720,23.19,75154.8,28.79,-6.13,-6.93,0,*47
1501582043.41,56721,23.19,75156.5,28.79,-7.43,-8.33,0,*46
1501582044.59,56722,23.19,75156.3,28.79,-7.53,-8.29,0,*4F
1501582045.78,56723,23.19,75156.8,28.75,-6.47,-7.19,0,*4A
1501582047.0,56724,23.19,75156.0,28.77,-5.43,-6.31,0,*43
1501582048.24,56725,23.19,75158.5,28.81,-5.89,-6.55,0,*4F
1501582049.45,56726,23.19,75152.5,28.81,-6.05,-6.73,0,*4F
1501582050.69,56727,23.19,75158.8,28.79,-6.97,-7.65,0,*44
1501582051.91,56728,23.19,75156.8,28.79,-7.19,-7.91,0,*47
1501582053.1,56729,23.25,75160.3,28.79,-6.13,-6.85,0,*49
1501582054.31,56730,23.19,75156.3,28.79,-6.73,-7.61,0,*4C
1501582055.52,56731,23.25,75158.5,28.79,-7.23,-7.99,0,*4E
1501582056.76,56732,23.19,75158.5,28.79,-6.93,-7.77,0,*47
1501582058.01,56733,23.19,75154.5,28.77,-7.15,-7.77,0,*47
1501582059.24,56734,23.19,75154.5,28.77,-8.33,-9.15,0,*41
1501582060.48,56735,23.25,75156.5,28.75,-9.57,-10.41,0,*78
1501582061.7,56736,23.25,75158.5,28.69,-9.67,-10.35,0,*76
1501582062.92,56737,23.19,75156.3,28.69,-9.75,-10.45,0,*73
1501582064.15,56738,23.25,75160.0,28.65,-9.05,-9.75,0,*4C
1501582065.39,56739,23.19,75152.8,28.65,-8.51,-9.27,0,*4A
1501582066.63,56740,23.19,75154.8,28.63,-9.57,-10.41,0,*7D
1501582067.85,56741,23.19,75154.3,28.61,-8.17,-9.05,0,*43
1501582069.06,56742,23.19,75156.0,28.61,-7.87,-8.71,0,*44
1501582070.3,56743,23.19,75152.8,28.61,-7.35,-8.29,0,*41
1501582071.53,56744,23.19,75152.3,28.61,-9.19,-10.01,0,*75
1501582072.8,56745,23.19,75152.0,28.59,-9.83,-10.79,0,*73
1501582074.05,56746,23.19,75154.3,28.57,-9.61,-10.41,0,*79
1501582075.26,56747,23.19,75156.0,28.53,-7.35,-8.17,0,*49
1501582076.47,56748,23.19,75152.5,28.53,-7.87,-8.81,0,*40
1501582077.68,56749,23.25,75158.0,28.53,-7.91,-8.71,0,*49
1501582078.89,56750,23.19,75152.0,28.53,-7.31,-8.17,0,*4B
1501582080.1,56751,23.25,75154.3,28.53,-7.61,-8.63,0,*4C
1501582081.31,56752,23.19,75154.0,28.55,-8.29,-8.97,0,*41
1501582082.53,56753,23.25,75156.0,28.53,-7.57,-8.29,0,*45
1501582083.75,56754,23.19,75150.0,28.53,-7.05,-7.87,0,*4E
1501582084.99,56755,23.19,75152.5,28.53,-7.35,-8.11,0,*4C
1501582086.18,56756,23.19,75154.8,28.53,-8.25,-8.97,0,*4F
1501582087.4,56757,23.19,75152.5,28.51,-8.41,-9.23,0,*40
1501582088.61,56758,23.25,75156.3,28.47,-7.53,-8.29,0,*4F
1501582089.87,56759,23.19,75152.8,28.47,-6.97,-7.69,0,*4C
1501582091.08,56760,23.19,75152.8,28.47,-7.83,-8.59,0,*4E
1501582092.32,56761,23.19,75154.0,28.47,-8.75,-9.57,0,*46
1501582093.56,56762,23.19,75152.5,28.47,-7.69,-8.37,0,*40
1501582094.8,56763,23.19,75154.0,28.47,-7.15,-7.77,0,*41
1501582096.07,56764,23.19,75152.5,28.47,-7.31,-8.11,0,*4F
1501582097.31,56765,23.19,75154.3,28.47,-6.89,-7.65,0,*40
1501582098.55,56766,23.19,75152.3,28.47,-6.89,-7.57,0,*42
1501582099.79,56767,23.19,75154.3,28.51,-7.61,-8.33,0,*4E
1501582101.02,56768,23.25,75154.5,28.47,-7.95,-8.63,0,*48
1501582102.27,56769,23.19,75154.5,28.47,-7.65,-8.37,0,*47
1501582103.54,56770,23.19,75154.3,28.47,-6.97,-7.77,0,*48
1501582104.78,56771,23.25,75154.3,28.47,-6.89,-7.65,0,*45
1501582106.02,56772,23.19,75152.8,28.47,-6.73,-7.39,0,*4A
1501582107.24,56773,23.19,75152.5,28.51,-6.35,-7.15,0,*40
1501582108.46,56774,23.25,75156.5,28.51,-6.05,-6.81,0,*48